Aalto-2 (42729 NORAD) Tracking and Keplerian Element Data

This shows tracking and keplerian element data for the satellite.

Feedback or suggestion? Click here.




ElementValue
Catalog42729
NameAalto-2
Epoch Orbit8419
Epoch Day319.19967927
Epoch Year2018
RAAN297.0201
Inclination51.6273
Eccentricity0.0004968
Argument of Perigee80.6392
Mean Anonmoly279.5173
Mean Motion15.85148559
Decay Rate0.00086404
L11 42729U 98067MJ 18319.19967927 .00086404 00000-0 35651-3 0 9991
L22 42729 51.6273 297.0201 0004968 80.6392 279.5173 15.85148559 84193

Live tracking and technical data element details for Aalto-2 (NORAD 42729). Aalto-2 can be tracked NOW for your location showing map with azimuth and elevation plus other details from your city location.

Track the satellite on the map from your city or location and see movement details for azimuth, elevation, latitude, longitude, range, height, and movement on the map or in text.







IsCatalogInMostPopularTable: catalog: 42729, numindb: 164
Update: records affected: 1



GetName: 42729 Aalto-2

Hit Count: updated at: Tue, 20 Nov 2018 00:48:18 GMT